Regional Weather Roundup
Issued by NWS

Home | Current Version | Previous Version | Graphics & Text | Print | Product List | Glossary Off
Versions: 1 2 3 4 5 6 7 8 9 10 11 12 13 14 15 16 17 18 19 20 21 22 23 24 25 26 27 28 29 30 31 32 33 34 35 36 37 38 39 40 41 42 43 44 45 46 47 48 49 50

000
ASUS43 KMKX 310311
RWRWI

WISCONSIN REGIONAL WEATHER ROUNDUP
NATIONAL WEATHER SERVICE MILWAUKEE/SULLIVAN WI
1000 PM CDT SAT AUG 30 2014

NOTE: "FAIR" INDICATES FEW OR NO CLOUDS BELOW 12,000 FEET WITH NO
SIGNIFICANT WEATHER AND/OR OBSTRUCTIONS TO VISIBILITY.

WIZ001-002-006>008-014>016-023>028-310400-
NORTHWEST WISCONSIN

CITY           SKY/WX    TMP DP  RH WIND       PRES   REMARKS
SUPERIOR ARPT  CLOUDY    62  60  93 E3        29.91S
ASHLAND        MOCLDY    59  57  93 SE5       29.92F
HAYWARD        CLOUDY    60  58  92 NE3       29.93S
SIREN          MOCLDY    63  60  90 SE3       29.90S
RICE LAKE      CLEAR     60  58  94 N3        29.92S
LADYSMITH      PTCLDY    60  58  93 CALM      29.93S
EAU CLAIRE     CLEAR     61  60  97 N3        29.89S
MENOMONIE      CLEAR     62  60  95 CALM      29.90S
NEW RICHMOND   CLEAR     61  60  97 CALM      29.90S
OSCEOLA        CLOUDY    63  63 100 E6        29.91F
$$

WIZ003>005-009-010-017-018-310400-
NORTH CENTRAL WISCONSIN

CITY           SKY/WX    TMP DP  RH WIND       PRES   REMARKS
WOODRUFF       CLOUDY    59  57  91 CALM      29.93R
RHINELANDER    CLOUDY    58  56  93 CALM      29.93S
EAGLE RIVER    CLOUDY    57  57 100 CALM      29.92S
LAND O LAKES   CLOUDY    58  56  95 N3        29.94R
PHILLIPS       CLOUDY    59  57  93 NE6       29.92S
TOMAHAWK       CLOUDY    58  56  93 CALM      29.93R
MEDFORD        PTCLDY    58  56  94 N3        29.92R
MERRILL        CLOUDY    61  58  89 NE7       29.91S
$$

WIZ029-030-035-036-043>047-310400-
CENTRAL WISCONSIN

CITY           SKY/WX    TMP DP  RH WIND       PRES   REMARKS
WAUSAU         CLOUDY    64  59  83 N3        29.89S
MOSINEE        CLOUDY    63  61  94 N5        29.91S
MARSHFIELD     CLOUDY    65  60  84 CALM      29.90S
STEVENS POINT  CLOUDY    63  60  91 CALM      29.90S
WAUPACA        PTCLDY    67  65  91 CALM      29.88F
WAUTOMA        CLOUDY    70  64  83 N5        29.89S
WISC RAPIDS    CLOUDY    66  62  87 NW3       29.91R
CAMP DOUGLAS   CLOUDY    65  65 100 W2        29.90R
$$

WIZ011>013-019>022-031-037>040-048>050-310400-
NORTHEAST WISCONSIN

CITY           SKY/WX    TMP DP  RH WIND       PRES   REMARKS
ANTIGO         CLOUDY    60  58  92 N6        29.92S
STURGEON BAY   CLOUDY    63  59  88 NW13      29.88R
GREEN BAY      CLOUDY    68  65  90 N5        29.88R
MANITOWOC      CLOUDY    68  66  93 N3        29.88R
APPLETON       MOCLDY    64  63  94 N7        29.89R
CLINTONVILLE   CLOUDY    64  61  88 N5        29.89R
OSHKOSH        CLEAR     69  64  84 N6        29.88R
$$

WIZ032>034-041-042-053>061-310400-
SOUTHWEST WISCONSIN

CITY           SKY/WX    TMP DP  RH WIND       PRES   REMARKS
LA CROSSE      MOCLDY    68  64  87 N3        29.88R
SPARTA         CLOUDY    65  61  85 CALM      29.90S
VIROQUA        FAIR      65  65 100 E3        29.91R
BOSCOBEL       LGT RAIN  71  68  90 W3        29.89R
PRAIRIE DU CHI PTCLDY    69  65  87 CALM      29.88R
PLATTEVILLE    FAIR      68  65  90 CALM      29.91R
$$

WIZ056-057-062-063-064-067-068-310400-
SOUTH CENTRAL WISCONSIN

CITY           SKY/WX    TMP DP  RH WIND       PRES   REMARKS
BARABOO/DELLS  CLOUDY    70  64  82 NW3       29.90R
LONE ROCK      MOCLDY    72  66  81 CALM      29.88R
WATERTOWN      PTCLDY    67  66  99 CALM      29.88S
MADISON        PTCLDY    69  66  90 CALM      29.88S
MIDDLETON      FAIR      68  67  96 CALM      29.89R
MONROE         CLEAR     70  64  83 SW7       29.90S
JANESVILLE     CLEAR     72  64  78 S3        29.88S
$$

WIZ051-052-058>065-066-070>072-310400-
SOUTHEAST WISCONSIN

CITY           SKY/WX    TMP DP  RH WIND       PRES   REMARKS
MILWAUKEE      PTCLDY    73  67  81 W6        29.88R
WAUKESHA       CLEAR     66  64  94 CALM      29.90S
MILWAUKEE/TIMM CLEAR     68  64  88 CALM      29.88S
RACINE         CLEAR     71  66  84 SW7       29.90R
BURLINGTON     CLEAR     64  64  97 SW5       29.90R
KENOSHA        CLEAR     70  67  90 SW6       29.90R
FOND DU LAC    MOCLDY    70  66  87 NW8       29.88R
SHEBOYGAN      MOCLDY    66  64  93 CALM      29.87S
WEST BEND      MOCLDY    66  63  88 W3        29.88S
JUNEAU         MOCLDY    68  67  96 CALM      29.89S
$$

LSZ147-162-310400-
LAKE SUPERIOR

STATION/POSITION TIME  TEMP    WIND        PRES    WAVE
                       AIR SEA DIR/SP/G            HT/PER
                 (UTC) (F)     (DEG/KT/KT) (MB)    (FT/S)
W MID LAKE BUOY  0250   58 58  290/  2/  4 1012.8F   1
DEVILS ISLAND    0300   61     190/  2/  2 1013.1F
PORT WING        0200   62      CALM  /  3 1013.2S
SAXON HARBOR     0200   59        CALM     1013.5R
$$

LMZ867-665-643>646-310400-
LAKE MICHIGAN

STATION/POSITION TIME  TEMP    WIND        PRES    WAVE
                       AIR SEA DIR/SP/G            HT/PER
                 (UTC) (F)     (DEG/KT/KT) (MB)    (FT/S)
N MID LAKE BUOY  0250   64 65  300/ 16/ 17 1009.8R   3/ 6
NORTHPORT PIER   0200   65     320/ 15/ 20 1010.5R
SISTER BAY       0241   65     330/ 16/ 18   N/A
ALGOMA LAKESHORE 0038          340/ 10/ 14   N/A
KEWAUNEE LAKESHO 0200   68     340/  4/  6 1010.2R
SHEBOYGAN LAKESH 0300   71 51  300/  4/  5 1011.6R
ATWATER BUOY     0300   69     170/  2/  2 1012.8R
MILWAUKEE LAKESH 0200   74        CALM       N/A
S MID LAKE BUOY  0250   71 69  250/  6/  8 1011.5R   2/ 4
KENOSHA   LAKESH 0300   76     240/  4/ 10 1011.9R
$$

TC  - TEMPERATURE IN CELSIUS
VSB - VISIBILITY IN STATUTE MILES
WCI - WIND CHILL INDEX
HX  - HEAT INDEX




USA.gov is the U.S. government's official web portal to all federal, state and local government web resources and services.